This is the latest recevied weather packets stored in our database for station/object W5ALL-WX. If no packets are shown the sender has not sent any weather packets the latest 10 day(s).
| Time | Temp. | Humidity | Pressure | Rain* | Wind** | Luminosity | Snow |
|---|---|---|---|---|---|---|---|
| 1777783886 | 14.44° C | 58% | 1020.8 hPa | 0 mm | - | - | - |
| 1777783586 | 13.89° C | 61% | 1020.8 hPa | 0 mm | - | - | - |
| 1777783286 | 13.89° C | 65% | 1020.8 hPa | 0 mm | - | - | - |
| 1777782986 | 13.33° C | 67% | 1020.8 hPa | 0 mm | - | - | - |
| 1777782686 | 13.33° C | 68% | 1020.8 hPa | 0 mm | - | - | - |
| 1777782386 | 13.33° C | 68% | 1020.8 hPa | 0 mm | - | - | - |
| 1777782086 | 13.33° C | 68% | 1020.8 hPa | 0 mm | - | - | - |
| 1777781786 | 13.33° C | 68% | 1020.9 hPa | 0 mm | - | - | - |
| 1777781486 | 13.33° C | 68% | 1020.8 hPa | 0 mm | - | - | - |
| 1777781186 | 13.33° C | 67% | 1020.8 hPa | 0 mm | - | - | - |
| 1777780886 | 13.89° C | 66% | 1020.8 hPa | 0 mm | - | - | - |
| 1777780586 | 13.89° C | 66% | 1020.8 hPa | 0 mm | - | - | - |
| 1777780286 | 13.89° C | 67% | 1020.9 hPa | 0 mm | - | - | - |
| 1777779986 | 13.89° C | 66% | 1020.9 hPa | 0 mm | - | - | - |
| 1777779686 | 13.89° C | 65% | 1020.9 hPa | 0 mm | - | - | - |
| 1777779386 | 14.44° C | 63% | 1020.9 hPa | 0 mm | - | - | - |
| 1777779086 | 14.44° C | 60% | 1020.9 hPa | 0 mm | - | - | - |
| 1777778786 | 15° C | 58% | 1020.9 hPa | 0 mm | - | - | - |
| 1777778486 | 15.56° C | 56% | 1020.8 hPa | 0 mm | - | - | - |
| 1777778186 | 15.56° C | 54% | 1020.6 hPa | 0 mm | - | - | - |
| 1777777886 | 16.11° C | 54% | 1020.5 hPa | 0 mm | - | - | - |
| 1777777586 | 16.11° C | 53% | 1020.5 hPa | 0 mm | - | - | - |
| 1777777286 | 16.11° C | 52% | 1020.4 hPa | 0 mm | - | - | - |
| 1777776986 | 16.11° C | 51% | 1020.4 hPa | 0 mm | - | - | - |
| 1777776686 | 16.67° C | 50% | 1020.4 hPa | 0 mm | - | - | - |
* Rain latest hour (hover to see other rain measurements)
** Current wind speed in m/s (hover to see current wind gust speed)